CZ-6A DEB, 54304

Orbit data source: Space-Track

CZ-6A DEB, 54304 is space debris in SSO originally from a launch on Fri, 11 Nov 2022 UTC launched from the Taiyaun Space Center, China (TSC). Debris objects in space refer to the collection of defunct objects orbiting the Earth. Examples of debris include non-operational satellites, rocket bodies, and fragments generated from explosions, collisions, or faulty payload assembly.

Loading next visibility...
Identifier
54304, 2022-151AX
Orbit
SSO
Country
Flag of CNCN / PRC
Related business
Manufacturer
SAST
Mission
Spacecraft
Bus & Motor
Unknown
Mass
Unknown
Launch date (UTC)
2022-11-11 (3 years ago)
Launch vehicle
Unknown
Launch site
Taiyaun Space Center, China (TSC)
Object type
Payload
Rocket body
Debris
Shape & HBR
Unknown shape, 0.1 m
Radar Cross Section
Small (<0.1 m²)

Expand to show TLE details & history
Last TLE update: 15 hours ago

TLE from 15 hours ago
0 CZ-6A DEB
1 54304U 22151AX  26129.99590912  .00001325  00000-0  68298-3 0  9998
2 54304  98.8370 138.5180 0044184  63.1285 297.4395 14.16365312179418
Epoch: 2026-05-09T23:54Z
TLE epoch observation values (Epoch: 2026-05-09T23:54:06.547Z)
Latitude
-0.00009°
Longitude
-87.8146°
Altitude
825.993 km
Speed
7.448 km/s
True Right ascension
09h 14m 04s
True Declination
0° 00' 00"
Sunlit
Object was in daylight at epoch
Visualization orbit readout
Latitude
Unknown
Longitude
Unknown
Altitude
Unknown
Speed
Unknown
Apparent Right ascension
Unknown
Apparent Declination
Unknown
Sunlit
N/A
Visualization observer readout
Local Sidereal Time
22:57:54
Azimuth
Unknown
Elevation
Unknown
Doppler factor
Unknown
Orbital elements
Apogee altitude
866.711 km
Perigee altitude
802.971 km
Semi-major axis
7,212.978 km
Eccentricity
0.00442
Inclination
98.837°
RAAN
138.518°
Arg. of periapsis
63.1285°
True anomaly
296.98901°
Mean anomaly
297.4395°
Eccentric anomaly
297.21437°
Mean motion
3.543 °/min
Orbital period
101.61 mins
BSTAR
0.00068298
Loading maneuver chart data...
Computing Atmospheric mass density...

Documentation

Showing up to 5 results
|